This is the latest recevied weather packets stored in our database for station/object VK2BLR. If no packets are shown the sender has not sent any weather packets the latest 10 day(s).
| Time | Temp. | Humidity | Pressure | Rain* | Wind** | Luminosity | Snow |
|---|---|---|---|---|---|---|---|
| 1777713915 | 21.11° C | 56% | 1018.6 hPa | 0 mm | - | - | - |
| 1777713016 | 21.67° C | 55% | 1018.7 hPa | 0 mm | - | - | - |
| 1777712115 | 21.67° C | 54% | 1018.5 hPa | 0 mm | - | - | - |
| 1777711214 | 22.22° C | 54% | 1018.6 hPa | 0 mm | - | - | - |
| 1777710315 | 22.22° C | 53% | 1018.4 hPa | 0 mm | - | - | - |
| 1777709416 | 22.78° C | 50% | 1018.4 hPa | 0 mm | - | - | - |
| 1777708515 | 22.78° C | 50% | 1018.4 hPa | 0 mm | - | - | - |
| 1777707615 | 22.78° C | 50% | 1018.4 hPa | 0 mm | - | - | - |
| 1777706716 | 23.33° C | 50% | 1018.1 hPa | 0 mm | - | - | - |
| 1777705815 | 23.33° C | 49% | 1018.1 hPa | 0 mm | - | - | - |
| 1777704914 | 23.33° C | 50% | 1017.9 hPa | 0 mm | - | - | - |
| 1777704016 | 23.33° C | 50% | 1018 hPa | 0 mm | - | - | - |
| 1777703115 | 23.89° C | 50% | 1018.1 hPa | 0 mm | - | - | - |
| 1777702216 | 23.89° C | 49% | 1018.1 hPa | 0 mm | - | - | - |
| 1777701315 | 23.89° C | 50% | 1018.4 hPa | 0 mm | - | - | - |
| 1777700416 | 23.89° C | 50% | 1018.5 hPa | 0 mm | - | - | - |
| 1777699515 | 24.44° C | 49% | 1018.5 hPa | 0 mm | - | - | - |
| 1777698616 | 24.44° C | 49% | 1018.6 hPa | 0 mm | - | - | - |
| 1777697714 | 24.44° C | 49% | 1018.6 hPa | 0 mm | - | - | - |
| 1777696815 | 24.44° C | 47% | 1018.8 hPa | 0 mm | - | - | - |
| 1777695915 | 24.44° C | 46% | 1019.1 hPa | 0 mm | - | - | - |
| 1777695015 | 24.44° C | 45% | 1019 hPa | 0 mm | - | - | - |
| 1777694115 | 24.44° C | 44% | 1019.2 hPa | 0 mm | - | - | - |
| 1777693215 | 24.44° C | 47% | 1019.1 hPa | 0 mm | - | - | - |
| 1777692314 | 24.44° C | 48% | 1019.4 hPa | 0 mm | - | - | - |
* Rain latest hour (hover to see other rain measurements)
** Current wind speed in m/s (hover to see current wind gust speed)